Regional Weather Roundup
Issued by NWS

Home | Current Version | Previous Version | Text Only | Print | Product List | Glossary On
Versions: 1 2 3 4 5 6 7 8 9 10 11 12 13 14 15 16 17 18 19 20 21 22 23 24 25 26 27 28 29 30 31 32 33 34 35 36 37 38 39 40 41 42 43 44 45 46 47 48 49 50
000
ASUS43 KMPX 020801
RWRMN
WEATHER ROUNDUP FOR MINNESOTA
NATIONAL WEATHER SERVICE TWIN CITIES/CHANHASSEN MN
300 AM CDT TUE JUN 02 2015


NOTE: "FAIR" INDICATES FEW OR NO CLOUDS BELOW 12,000 FEET WITH NO
SIGNIFICANT WEATHER AND/OR OBSTRUCTIONS TO VISIBILITY. N/A MEANS
CURRENT SKY AND/OR WEATHER CONDITIONS ARE NOT AVAILABLE.

MNZ060>063-068>070-020900-
   Twin Cities Metro

CITY           SKY/WX    TMP DP  RH WIND       PRES   REMARKS
TWIN CITIES    PTCLDY    56  41  57 SE8       30.09S
ST PAUL        MOCLDY    55  43  63 SE10      30.09F
CRYSTAL        PTCLDY    58  40  51 S9        30.07S
BLAINE         MOCLDY    57  43  58 SE7       30.08S
LAKEVILLE      PTCLDY    52  43  71 SE6       30.08F
EDEN PRAIRIE   PTCLDY    56  40  55 SE8       30.07S
SOUTH ST PAUL  PTCLDY    56  42  60 SE5       30.09F
LAKE ELMO      FAIR      54  43  66 SE7       30.10F
$$
MNZ001>005-007-008-013>017-022>024-027-028-020900-
   Northwest Minnesota

CITY           SKY/WX    TMP DP  RH WIND       PRES   REMARKS
BEMIDJI        CLOUDY    58  38  47 SE10      29.97F
HALLOCK        CLOUDY    57  52  82 S17       29.86S
ROSEAU         CLOUDY    59  46  63 S12       29.91R
WARROAD        DRIZZLE   59  45  58 S6        29.92S
THIEF RVR FALL CLOUDY    57  48  72 CALM      29.93R
CROOKSTON      RAIN      54  54 100 N9        29.93R
FOSSTON        CLOUDY    61  41  48 S17       29.93S
MOORHEAD       CLOUDY    63  45  51 SE17G25   29.89F
PARK RAPIDS    MOCLDY    58  38  47 S13       29.98F
MAHNOMEN       FAIR      61  43  50 S15G25    29.92S
$$
MNZ006-009>011-018-025>026-020900-
   North Central Minnesota

CITY           SKY/WX    TMP DP  RH WIND       PRES   REMARKS
BAUDETTE       CLOUDY    55  39  54 SE7       29.94F
FLAG ISLAND    CLOUDY    57  46  67 S17       29.92S
INTL FALLS     CLOUDY    56  38  50 SE7       30.00R
WASKISH        CLOUDY    59  41  51 SE9G18    29.95F
BIG FORK       CLOUDY    55  39  54 S9        30.03S
LONGVILLE      MOCLDY    57  43  58 S8        30.02S
GRAND RAPIDS   MOCLDY    46  36  66 SE10      30.05S
CRANE LAKE     CLOUDY    52  34  50 CALM      30.06S
ORR            CLOUDY    50  30  46 SE6       30.02S
COOK           CLOUDY    48  34  57 SE3       30.06S
WALKER         PTSUNNY   57  40  51 S12G17    29.99F
$$
MNZ012-019>021-037-020900-
   Northeast Minnesota

CITY           SKY/WX    TMP DP  RH WIND       PRES   REMARKS
DULUTH         MOCLDY    44  30  57 SE8       30.09F
ELY            MOCLDY    52  36  54 S5        30.07S
HIBBING        MOCLDY    43  33  68 SE3       30.07S
EVELETH        MOCLDY    46  32  57 CALM      30.09R
DULUTH HARBOR  MOCLDY    45  36  70 NE8       30.13S
TWO HARBORS    CLOUDY    46  37  71 CALM      30.09F
SILVER BAY     CLOUDY    36  34  93 CALM      30.10S
GRAND MARAIS     N/A     42  35  76 CALM      30.13R
G MARAIS ARPRT PTCLDY    37  28  70 CALM      30.13S
$$
MNZ029>031-032-039>041-046>048-054>057-064-020900-
   West Central Minnesota

CITY           SKY/WX    TMP DP  RH WIND       PRES   REMARKS
FERGUS FALLS   MOCLDY    61  45  55 S17       29.95S
WHEATON        MOCLDY    57  46  67 SE16      29.94F
MORRIS         MOCLDY    57  43  58 SE14      29.97S
ALEXANDRIA     PTCLDY    58  40  51 S10       30.01F
ELBOW LAKE     FAIR      60  44  54 S21G26    29.96F
WADENA         MOCLDY    55  39  54 SE6       29.99F
GLENWOOD       PTCLDY    61  39  44 S15       30.01F
APPLETON       MOCLDY    63  45  51 SE10G18   29.97S
BENSON         PTCLDY    61  39  44 S10       30.00S
ORTONVILLE     MOCLDY    59  46  63 SE8       29.96S
MADISON        MOCLDY    61  46  59 S13       29.97S
WILLMAR        FAIR      61  43  51 SE10G16   30.04R
$$
MNZ033>034-036-042>043-049>051-058-059-020900-
   Central Minnesota

CITY           SKY/WX    TMP DP  RH WIND       PRES   REMARKS
ST CLOUD       MOCLDY    54  43  66 SE6       30.05F
SAUK CENTRE    FAIR      55  41  58 SE8       30.02F
PAYNESVILLE    MOCLDY    57  41  54 E9        30.04S
AITKIN         MOCLDY    57  45  62 S12       30.03F
PINE RIVER     MOCLDY    55  45  67 SE7       30.05S
BRAINERD       MOCLDY    56  41  57 S7        30.04S
STAPLES        MOCLDY    55  39  54 S12       30.01S
LONG PRAIRIE   FAIR      55  41  58 SE10      30.03S
LITTLE FALLS   MOCLDY    54  41  62 SE8       30.04S
LITCHFIELD     PTCLDY    61  45  55 SE6       30.05S
BUFFALO        PTCLDY    58  40  52 SE6       30.07S
MAPLE LAKE     PTCLDY    58  45  61 SE5       30.07S
$$
MNZ037-044-045-052-053-020900-
   East Central Minnesota

CITY           SKY/WX    TMP DP  RH WIND       PRES   REMARKS
PRINCETON      MOCLDY    57  43  58 SE8       30.07S
MORA           MOCLDY    54  41  62 SE3       30.10S
CAMBRIDGE      MOCLDY    57  43  58 SE7       30.07R
RUSH CITY      MOCLDY    52  43  70 SE5       30.09R
MOOSE LAKE     PTCLDY    37  36  93 NE3       30.08S
HINCKLEY       FAIR      46  45  93 CALM      30.09S
CLOQUET        MOCLDY    41  34  75 E3        30.10S
MCGREGOR       MOCLDY    45  37  76 SE3       30.07S
$$
MNZ071>073-080-081-089-090-097-098-020900-
   Southwest Minnesota

CITY           SKY/WX    TMP DP  RH WIND       PRES   REMARKS
MONTEVIDEO     MOCLDY    61  45  55 S12       29.99F
GRANITE FALLS  PTCLDY    59  43  55 SE12      30.02F
CANBY          MOCLDY    60  49  66 SE7       29.99R
MARSHALL       MOCLDY    61  45  55 S10       30.00R
REDWOOD FALLS  PTCLDY    59  41  51 S13       30.03S
OLIVIA         PTCLDY    55  39  54 SE9       30.03R
PIPESTONE      MOCLDY    59  48  67 S13       30.00S
WINDOM         MOCLDY    59  46  63 SE9       30.04F
WORTHINGTON    MOCLDY    57  45  62 S13       30.04F
JACKSON        MOCLDY    59  46  63 S9        30.06F
TRACY          MOCLDY    60  47  63 S12       30.01F
SLAYTON        MOCLDY    58  47  67 S10       30.03S
$$
MNZ065>067-074>077-082>085-091>093-020900-
   South Central Minnesota

CITY           SKY/WX    TMP DP  RH WIND       PRES   REMARKS
MANKATO        CLEAR     57  39  51 SE12      30.08S
NEW ULM        CLEAR     57  43  58 S9        30.06S
ST JAMES       PTCLDY    57  46  67 SE9       30.07S
FAIRMONT       PTCLDY    55  43  62 S12       30.07F
GLENCOE        CLEAR     58  44  58 SE7       30.06F
FARIBAULT      CLEAR     55  39  54 SE10      30.09F
OWATONNA       CLEAR     55  39  54 SE12      30.10F
WASECA         CLEAR     54  39  58 SE12      30.10F
ALBERT LEA     CLEAR     55  41  58 S9        30.11S
$$
MNZ078>079-086>088-094>096-020900-
   Southeast Minnesota

CITY           SKY/WX    TMP DP  RH WIND       PRES   REMARKS
ROCHESTER      CLEAR     48  42  80 SE9       30.14F
RED WING       PTCLDY    55  41  58 E5        30.11S
STANTON        PTCLDY    58  38  48 SE10G17   30.08F
DODGE CENTER   PTCLDY    52  43  71 S8        30.12F
WINONA         CLEAR     52  43  71 CALM      30.16S
AUSTIN         CLEAR     54  41  62 S5        30.12F
PRESTON        CLEAR     50  40  68 SE5       30.15S
$$
ABBREVIATIONS USED IN REMARKS
   TC - TEMPERATURES IN CELSIUS
  WCI - WIND CHILL INDEX
   HX - HEAT INDEX
  VSB - VISIBILITY
$$


USA.gov is the U.S. government's official web portal to all federal, state and local government web resources and services.